Wind_Speed
2 4 9 22 14 2 3 6 8 9 8 3 15 18 18 19 20 22 21 20 20 21 24 28 25 26 28 31 34 40 42 45 45 43 42 39 49 50 48 47 45 43 41 39
3 7 14 3 3 7 9 13 14 14 16 5 14 22 16 17 19 27 24 21 22 19 16 17 17 19 24 30 34 37 42 43 47 46 46 31 36 43 52 52 50 47 44 40
12 5 6 5 4 6 8 6 16 15 6 5 9 14 12 9 14 21 23 20 15 16 18 19 10 10 18 26 31 37 41 44 47 44 38 35 28 26 39 42 47 48 47 45
7 5 7 4 6 12 19 11 14 9 4 5 4 10 16 22 20 10 16 10 10 11 9 8 9 8 16 28 30 32 36 40 42 42 39 42 36 28 40 43 49 53 49 47
8 5 4 6 10 7 10 3 6 2 4 4 4 4 2 3 5 11 10 13 10 7 6 10 10 14 19 20 24 30 35 38 41 45 44 40 34 34 31 33 40 46 48 47
7 2 6 9 7 10 4 2 3 4 2 6 13 11 3 5 5 4 5 7 5 9 9 8 10 12 17 18 19 22 30 33 36 40 42 45 38 31 30 35 37 41 45 48
1 5 4 3 2 1 2 5 4 4 0 9 2 6 12 3 8 7 9 9 8 5 8 10 12 13 22 20 15 15 22 27 29 33 35 37 37 36 37 38 35 39 42 47
3 14 8 6 8 7 6 8 6 8 5 13 1 8 6 9 6 6 1 6 4 7 6 8 9 9 18 18 12 11 16 21 25 31 35 33 36 35 37 39 39 41 44 48
4 7 2 5 3 5 4 6 3 2 2 3 11 19 9 6 1 2 4 4 6 9 8 10 9 12 16 15 12 11 14 18 22 30 35 39 41 41 40 39 40 40 40 42
1 10 5 1 3 1 6 2 1 2 2 6 12 7 15 11 17 14 8 7 11 9 11 9 7 8 20 20 15 13 15 20 23 27 32 36 41 44 44 41 41 42 41 41
4 1 5 3 5 8 2 3 4 3 5 9 11 13 14 10 2 6 3 7 9 14 20 19 18 26 28 31 33 26 23 21 23 26 28 32 35 38 39 41 43 45 44 43
7 4 8 17 11 9 8 10 11 12 10 10 17 23 25 19 15 9 19 18 16 16 15 14 16 24 27 29 31 30 30 29 29 28 29 32 32 33 37 41 45 46 46 45
4 4 9 6 1 4 4 4 9 12 14 21 16 13 15 22 16 17 17 16 15 15 16 17 18 17 23 25 28 31 32 34 38 37 28 31 32 34 39 42 43 43 42 43
3 6 16 16 19 13 7 9 7 5 5 9 11 16 16 16 20 14 14 13 13 13 16 16 15 15 22 24 25 25 30 30 34 36 34 29 33 36 39 38 37 40 43 45
2 10 17 15 11 16 14 13 18 22 21 19 24 24 12 10 12 15 11 13 15 15 16 15 13 13 21 26 28 27 26 28 33 33 34 33 31 33 36 37 37 39 41 43
2 3 7 19 22 13 17 18 18 20 24 22 22 18 5 4 8 11 9 12 14 14 12 13 15 15 16 22 25 28 29 31 31 30 29 34 36 30 32 34 36 37 39 39
3 2 2 14 19 11 13 14 17 13 11 2 6 3 3 7 10 13 11 13 14 14 14 12 13 13 20 26 28 26 29 31 29 26 26 26 31 29 29 32 31 34 34 35
11 10 4 10 4 3 8 4 5 7 5 6 5 3 5 4 5 12 8 4 8 11 14 14 14 20 25 28 27 30 31 29 30 30 27 27 32 33 30 28 31 31 30 33
15 9 3 2 6 9 9 4 3 3 4 6 5 8 8 6 6 5 2 2 6 8 10 14 20 23 27 29 27 29 30 30 29 27 30 32 31 33 32 27 29 28 26 27
3 9 5 1 5 5 3 4 5 2 4 9 9 8 6 4 2 10 4 6 9 13 15 17 21 22 23 28 28 27 29 30 29 31 33 35 35 33 30 28 28 28 27 26
3 3 7 8 6 7 3 6 2 4 5 6 6 8 8 5 6 8 11 7 10 14 18 21 23 23 25 27 26 26 29 27 30 32 37 37 35 33 32 28 26 28 28 24
5 4 3 3 2 8 5 3 4 6 4 5 6 10 11 9 10 8 12 11 9 11 19 21 19 23 27 25 25 29 29 31 30 34 36 34 33 33 30 30 25 23 24 24
3 6 4 8 7 6 5 9 18 8 8 11 7 12 8 8 9 10 11 13 12 16 19 21 20 25 31 27 24 28 33 32 34 34 35 35 36 35 31 25 23 18 20 17
6 8 10 13 16 17 19 19 9 7 11 14 8 4 4 7 10 12 12 14 14 20 21 23 22 23 29 28 28 29 32 30 31 34 35 34 32 33 30 25 24 23 19 19
8 5 6 15 17 15 17 15 15 14 10 3 1 2 4 6 12 10 12 15 14 22 26 24 23 27 33 33 33 32 32 31 33 34 34 33 31 30 30 29 26 26 27 26
12 18 11 13 18 13 18 19 2 3 3 3 5 6 5 6 12 12 15 18 21 23 28 28 30 31 35 35 36 35 32 31 32 34 32 28 27 28 28 28 28 28 31 24
Wind_Direction
186 140 198 223 203 241 182 233 247 256 262 266 262 265 264 269 285 271 264 267 264 258 269 276 270 267 256 250 237 231 226 222 214 207 204 209 214 217 219 220 221 220 219 217
52 227 230 39 150 234 250 261 267 274 265 221 268 274 269 257 253 261 268 270 266 278 280 276 265 250 240 245 237 231 230 220 215 207 207 207 209 216 218 218 218 217 218 218
215 206 208 207 151 239 226 230 259 263 310 253 298 278 236 269 255 262 268 260 274 271 277 283 292 268 255 244 239 235 228 221 217 209 200 202 202 214 216 217 220 218 217 215
238 246 193 152 216 207 268 223 255 267 348 262 2 296 293 276 265 248 269 260 252 255 273 296 289 275 254 266 251 240 233 225 219 210 198 196 200 199 210 209 214 217 216 215
239 178 158 183 222 148 239 206 243 188 206 328 216 250 359 84 259 265 263 268 263 295 287 300 301 289 294 275 264 246 232 224 218 211 206 201 210 210 208 202 210 215 213 215
242 320 175 214 212 189 89 67 45 48 76 269 199 200 13 153 204 311 295 263 341 349 336 325 294 307 331 323 288 252 231 225 218 213 208 207 209 209 205 197 201 208 213 212
236 216 240 185 188 124 141 95 309 317 355 251 290 224 236 233 233 207 253 295 334 348 351 342 357 342 333 322 296 252 231 218 214 214 214 214 212 212 209 206 199 198 205 211
223 289 183 170 194 185 186 170 173 233 246 287 76 248 257 211 234 235 65 250 298 6 335 347 337 318 323 314 303 258 234 221 219 218 221 223 223 221 220 221 212 210 211 213
206 263 217 211 144 147 174 178 220 287 36 285 269 279 279 249 218 287 56 231 10 322 322 320 327 316 318 323 330 288 253 244 232 225 224 224 227 224 223 223 223 222 222 220
277 295 239 267 132 178 171 214 37 356 235 257 277 292 260 303 297 309 357 7 314 297 306 297 328 339 344 343 348 310 269 251 245 241 238 235 230 229 227 225 225 226 227 224
75 244 263 340 192 191 148 233 228 296 213 238 259 267 270 263 325 300 311 317 314 336 352 5 8 18 19 13 8 352 327 305 289 274 259 246 241 238 232 230 231 231 229 225
213 199 243 257 240 196 194 232 232 248 257 238 250 252 287 296 297 335 20 33 34 25 10 9 9 8 15 10 7 5 2 353 337 308 287 269 255 246 240 238 237 235 233 229
186 220 264 283 1 30 197 225 247 278 280 259 262 268 276 298 343 17 17 24 18 18 12 5 6 6 3 1 359 355 355 353 350 345 317 290 270 257 250 246 241 236 234 233
176 250 254 269 276 309 273 273 314 304 271 288 269 298 303 357 346 19 17 15 14 12 3 1 1 356 354 352 351 353 346 346 343 340 337 309 283 271 261 253 244 240 235 230
19 267 272 289 307 297 290 276 281 271 268 266 285 280 308 5 348 339 342 5 6 5 357 353 352 351 348 344 343 344 340 337 338 337 334 325 307 287 274 263 254 245 238 234
124 275 328 296 287 288 286 281 270 272 274 270 266 275 36 12 334 343 333 338 346 346 348 344 340 343 346 338 332 334 336 334 333 332 327 329 329 310 280 260 249 239 235 233
272 238 322 278 288 323 298 259 263 265 283 275 262 49 340 331 338 329 312 305 323 338 332 337 329 339 335 329 327 327 328 328 326 325 326 331 328 325 307 287 263 247 234 230
242 239 222 269 11 252 256 96 101 106 85 78 103 194 245 274 287 288 291 322 318 316 323 328 331 331 328 321 326 327 328 327 324 322 325 331 335 332 320 304 270 250 239 229
218 230 259 219 204 281 292 21 74 96 224 177 189 230 242 266 286 254 310 266 281 293 300 311 314 316 316 316 324 324 323 322 321 320 321 324 330 328 324 302 280 263 244 232
145 211 195 25 239 235 225 253 242 100 277 220 202 227 226 246 312 302 315 306 303 297 288 291 294 297 303 309 317 319 318 319 320 321 322 321 319 316 317 308 288 272 253 241
15 13 202 236 260 282 220 245 165 97 247 228 193 220 217 213 219 270 301 290 290 295 296 298 301 301 299 303 305 306 311 308 311 313 314 313 308 301 307 310 295 274 253 234
176 164 225 74 37 289 206 339 172 224 246 210 221 231 224 240 259 267 283 291 287 289 296 299 298 296 299 302 304 301 298 304 310 311 306 306 308 306 300 297 288 267 249 230
270 199 199 185 222 239 230 251 281 264 254 260 238 242 217 242 260 274 280 284 286 286 287 291 288 291 294 298 299 296 296 305 305 303 302 303 303 300 294 285 269 238 227 227
244 234 246 262 260 258 263 271 269 260 264 273 248 209 211 253 272 285 288 289 294 294 291 294 291 288 290 293 294 287 294 300 300 296 295 297 297 296 295 274 261 243 218 212
233 178 226 253 266 267 268 262 265 268 262 244 91 189 253 274 282 287 285 287 287 289 292 291 287 288 288 295 293 293 296 300 294 293 291 291 291 290 290 278 254 246 237 225
236 247 243 253 260 270 272 278 322 269 291 18 347 320 303 292 288 295 287 290 292 292 296 295 291 290 290 293 292 295 296 294 289 288 288 287 287 288 287 286 272 255 250 243
Height
799 812 811 790 801 793 800 808 808 792 779 784 777 768 765 754 747 740 734 730 727 720 708 709 711 714 716 717 720 722 724 726 733 741 747 753 751 757 763 769 776 782 787 791
809 812 795 793 798 805 805 805 800 782 776 786 777 757 755 750 739 724 719 718 713 711 710 703 704 705 707 707 709 713 716 721 722 725 730 741 746 748 751 755 760 768 776 784
796 790 790 796 799 799 803 809 791 790 783 782 777 745 747 734 733 722 713 710 712 712 708 699 701 706 706 703 703 704 706 709 712 718 724 730 738 745 749 750 757 761 766 770
794 785 787 797 800 792 789 787 784 788 793 795 776 760 738 724 719 724 711 708 709 707 704 705 701 698 699 696 695 696 700 704 709 714 716 718 720 725 724 732 741 748 757 763
783 784 787 791 785 788 782 776 785 786 795 796 786 794 722 721 725 719 712 705 705 706 707 703 698 694 689 687 687 688 690 692 698 703 706 714 719 715 716 728 736 742 749 757
786 779 779 774 773 777 772 778 788 804 799 795 776 774 741 727 716 712 706 704 706 703 703 700 695 692 688 686 686 684 686 690 694 699 705 703 708 715 718 720 727 735 742 748
777 776 770 768 772 777 778 784 804 803 817 773 757 770 725 707 708 705 704 702 705 709 708 705 697 692 686 684 681 683 685 685 691 699 704 705 705 709 712 716 721 724 732 738
782 768 766 767 765 770 783 783 795 797 798 752 760 751 718 705 698 702 704 704 706 707 707 702 697 694 688 685 682 684 685 685 688 692 700 707 711 711 713 716 715 719 722 727
782 776 760 762 759 759 776 781 768 775 811 804 739 710 705 703 702 703 701 702 710 708 700 700 697 695 692 687 683 685 688 690 691 689 688 690 697 702 702 707 711 715 719 722
767 773 758 755 760 762 764 767 775 785 781 790 742 742 710 709 706 707 710 715 714 706 702 695 697 698 694 692 686 687 686 684 685 689 689 689 688 690 695 698 703 708 711 716
768 777 763 757 761 759 768 768 770 770 765 754 752 726 694 706 708 711 713 712 710 707 708 707 708 704 705 701 695 698 698 696 696 696 692 689 689 694 692 693 696 699 702 705
773 771 771 756 749 748 750 749 753 756 750 745 726 714 681 698 701 712 722 731 728 730 728 725 719 716 712 713 708 702 698 697 696 694 689 687 687 688 690 688 689 694 695 697
768 770 759 758 753 760 753 748 745 743 740 737 739 719 703 692 708 748 743 740 734 734 732 731 727 723 720 717 716 713 705 698 695 691 687 685 683 682 682 679 682 684 690 692
769 759 758 748 741 744 750 747 754 763 756 732 731 731 728 745 750 759 754 753 747 742 741 735 731 728 725 724 722 715 711 704 700 693 686 682 680 676 676 677 673 676 677 679
775 761 758 757 769 771 766 765 763 756 747 748 736 724 725 764 766 757 754 755 752 745 741 738 735 731 727 723 720 718 714 709 701 693 687 682 676 671 669 667 666 669 671 674
784 781 775 771 760 761 758 750 745 744 737 728 728 725 764 767 766 763 758 752 749 746 741 737 734 726 724 726 723 718 713 708 701 694 689 683 675 668 664 663 661 661 660 667
791 793 801 773 758 773 766 745 736 730 730 747 742 761 770 765 761 760 754 752 747 743 741 737 737 726 725 724 721 718 711 706 702 697 691 685 680 668 660 657 654 654 651 656
781 785 804 782 810 818 740 751 756 755 760 761 765 769 765 763 762 761 755 753 752 749 740 734 729 724 723 722 718 715 707 701 698 692 686 681 676 665 659 653 653 649 648 647
775 778 812 813 835 756 740 758 762 765 764 766 763 757 758 759 761 755 748 747 745 743 738 734 731 728 724 719 711 709 703 701 695 688 685 678 667 663 656 650 649 645 646 643
769 770 777 825 771 788 760 762 754 758 784 765 763 762 764 761 767 744 742 741 739 736 733 731 728 725 721 714 710 705 700 695 688 683 676 671 666 661 654 651 648 644 644 642
816 824 795 793 792 783 760 755 752 785 770 757 757 754 754 755 750 739 736 738 736 733 731 728 724 720 715 710 706 701 696 691 686 679 673 667 664 661 650 643 643 643 641 634
785 813 826 846 829 807 759 756 760 752 743 746 746 744 743 741 738 737 735 733 733 730 725 722 719 714 710 707 704 698 693 688 681 674 671 663 657 653 645 638 634 635 636 635
789 776 796 789 780 752 754 749 738 739 740 737 737 734 736 736 735 733 732 729 726 725 721 718 715 708 702 700 698 691 685 683 676 672 663 658 652 647 638 632 631 626 626 630
759 757 759 757 740 743 738 734 735 733 733 729 729 731 733 733 731 731 729 724 722 718 715 712 708 701 694 694 691 687 681 678 673 667 659 653 645 639 631 625 624 623 617 617
750 754 754 743 734 734 731 728 727 725 724 726 728 730 732 734 730 730 726 722 718 713 708 707 702 696 688 685 681 679 674 671 664 658 650 643 637 631 622 617 613 613 607 605
736 734 742 736 724 726 723 719 722 724 725 727 729 729 731 731 729 727 721 718 714 707 702 699 695 690 682 678 672 669 667 663 656 646 640 635 630 623 616 611 603 601 600 596